Regional Weather Roundup
Issued by NWS

Home | Current Version | Previous Version | Graphics & Text | Print | Product List | Glossary On
Versions: 1 2 3 4 5 6 7 8 9 10 11 12 13 14 15 16 17 18 19 20 21 22 23 24 25 26 27 28 29 30 31 32 33 34 35 36 37 38 39 40 41 42 43 44 45 46 47 48 49 50
000
ASUS43 KLMK 220810
RWRKY
KENTUCKY REGIONAL WEATHER ROUNDUP
NATIONAL WEATHER SERVICE LOUISVILLE KY
400 AM EDT SUN APR 22 2018

NOTE "FAIR" INDICATES FEW OR NO CLOUDS BELOW 12,000 FEET
WITH NO SIGNIFICANT WEATHER AND/OR OBSTRUCTIONS TO VISIBILITY.

KYZ001>023-026-027-061>063-070>075-220900-
WESTERN AND SOUTH CENTRAL KENTUCKY

CITY           SKY/WX    TMP DP  RH WIND       PRES   REMARKS
PADUCAH        CLOUDY    55  47  74 NE5       30.13F
HENDERSON      NOT AVBL
OWENSBORO      FAIR      57  31  37 E8        30.19F
HOPKINSVILLE   FAIR      58  39  50 E9        30.13F
BOWLING GREEN  FAIR      56  38  50 E8        30.19S
GLASGOW        FAIR      52  36  54 E3        30.20S
$$

KYZ024-025-028>034-038-045-046-053-220900-
NORTH CENTRAL KENTUCKY

CITY           SKY/WX    TMP DP  RH WIND       PRES   REMARKS
LOUISVILLE/SDF CLOUDY    54  26  34 NE3       30.23F
LOUISVILLE/LOU FAIR      54  28  36 NE6       30.24F
FORT KNOX      CLOUDY    52  28  39 NE8       30.22F
$$

KYZ035>037-039>044-047>052-055>060-089>105-220900-
NORTHEAST KENTUCKY

CITY           SKY/WX    TMP DP  RH WIND       PRES   REMARKS
LEXINGTON      FAIR      50  28  42 NE8       30.24F
COVINGTON      CLOUDY    50  26  39 E12       30.26F
FRANKFORT      FAIR      51  26  37 NE6       30.23F
$$

KYZ054-064>069-076>088-106>120-220900-
SOUTHEAST KENTUCKY

CITY           SKY/WX    TMP DP  RH WIND       PRES   REMARKS
JACKSON        FAIR      53  20  27 VRB5      30.24F
LONDON         FAIR      54  27  35 CALM      30.23F
SOMERSET       FAIR      50  34  53 CALM      30.23F
MIDDLESBORO    FAIR      45  40  83 CALM      30.25F
MONTICELLO     FAIR      48  41  76 VRB6      30.23F
$$




USA.gov is the U.S. government's official web portal to all federal, state and local government web resources and services.